Temp
10 10 10 10 10 10 10 11 11 11 12 11 11 10 10 10 10 10 10 10 10 10 10 9 9 9 9 9 9 9 9 9 9 9 10 10 10 10 10 10 10 11 11 11 11 11 11 11 11
9 10 10 10 10 10 11 11 12 11 11 11 11 10 10 10 10 10 11 11 10 10 10 10 10 9 9 9 9 9 9 9 9 9 10 10 10 10 10 10 10 11 11 11 11 11 11 11 11
9 9 10 10 10 11 11 11 12 11 11 11 11 10 11 11 10 11 11 11 11 10 10 10 10 10 10 10 10 10 10 10 10 10 9 10 10 10 10 10 10 10 10 11 11 11 11 11 11
9 9 9 9 10 12 10 11 11 11 11 10 11 10 10 11 10 11 11 11 11 10 10 10 10 10 10 10 10 10 10 10 10 10 10 10 10 10 10 10 10 10 11 11 11 11 11 11 11
9 8 8 8 10 11 10 11 12 11 11 10 10 11 10 11 10 11 11 11 11 11 11 10 10 10 10 10 10 10 10 10 10 10 10 10 10 10 10 10 10 10 10 10 11 11 11 11 11
8 7 8 9 10 11 10 11 11 11 10 10 10 10 10 10 11 11 11 11 11 11 11 11 11 11 10 11 11 11 11 10 10 10 10 10 10 10 10 10 10 10 10 10 10 10 11 11 11
7 7 8 8 9 10 11 11 11 11 9 10 9 10 10 11 11 11 11 11 11 11 11 11 11 11 11 11 11 11 11 11 11 11 10 10 10 10 10 10 10 10 10 10 10 10 10 11 11
7 7 8 9 10 10 10 10 10 11 9 9 9 10 10 11 11 11 11 11 11 11 11 11 11 11 11 11 11 11 11 11 11 11 11 10 10 10 10 10 10 10 10 10 10 10 11 11 11
7 7 8 9 9 9 10 10 10 10 10 9 9 9 9 10 11 11 11 11 12 11 11 11 11 11 11 11 11 11 11 11 11 11 11 10 10 10 10 10 10 10 10 10 10 10 11 11 11
6 7 8 8 8 9 8 8 9 9 9 9 9 9 9 10 11 11 11 11 11 11 11 11 11 11 11 11 11 11 11 11 11 11 10 10 10 10 10 10 10 10 10 10 10 10 10 11 11
6 7 7 7 8 9 8 8 9 8 9 9 9 9 9 9 10 11 11 11 11 11 12 11 11 11 11 11 11 11 11 11 11 11 10 10 10 10 10 10 10 10 10 10 10 10 10 10 10
7 7 7 7 8 9 9 8 9 8 9 9 8 8 9 9 9 10 11 11 11 11 11 12 12 12 11 11 11 11 11 11 11 11 11 10 11 10 10 10 10 10 10 10 10 10 10 10 10
7 7 7 7 7 8 8 9 9 9 9 9 8 8 8 9 9 9 10 11 11 11 11 12 12 12 12 12 11 11 11 11 11 11 10 10 10 10 10 10 10 10 10 10 10 10 10 10 10
8 7 8 8 8 8 8 8 8 9 9 9 8 8 8 9 9 9 10 11 11 11 11 12 12 12 12 12 12 11 11 11 11 11 11 11 11 10 10 10 10 10 10 10 10 10 10 10 10
8 9 9 9 9 8 8 8 9 9 9 9 8 9 9 10 10 10 10 10 11 12 11 12 12 12 12 11 12 12 11 11 11 11 11 11 10 10 10 10 10 10 10 10 10 10 10 10 10
9 9 9 9 9 9 8 9 9 9 9 9 9 9 9 10 10 10 10 10 11 12 12 12 12 12 12 11 11 11 11 11 11 11 11 11 10 10 9 9 10 10 10 10 10 10 10 10 10
8 8 8 9 8 8 8 9 9 9 9 8 9 9 9 9 9 10 11 11 11 12 12 12 12 12 12 12 12 11 12 11 11 11 11 10 10 10 9 9 9 9 9 10 10 10 10 10 10
7 8 9 9 8 8 8 9 9 8 9 9 9 9 9 9 9 8 9 11 11 11 12 12 12 12 12 12 12 12 12 11 11 11 11 11 10 10 9 9 9 9 9 9 9 10 10 10 10
8 8 8 9 8 8 9 9 9 9 9 10 10 10 9 9 9 9 9 10 11 11 12 13 12 12 12 12 12 12 11 11 11 11 11 11 10 10 9 9 9 9 9 9 10 10 10 10 10
8 8 8 8 8 8 9 9 8 8 8 10 10 9 9 9 8 8 8 9 10 11 12 13 13 12 12 12 12 12 11 11 11 12 11 11 11 10 9 9 9 9 9 10 10 10 10 10 10
8 7 7 7 8 8 9 8 8 8 8 8 8 8 8 8 8 9 8 9 9 10 11 12 12 12 12 12 12 12 12 12 12 11 11 11 11 10 10 10 10 10 10 10 10 10 10 10 11
7 7 7 7 7 7 8 6 6 7 8 8 8 8 8 8 8 8 8 8 9 9 10 11 12 12 12 12 12 12 12 12 11 11 11 11 11 10 10 10 10 10 10 10 10 10 10 10 11
7 7 7 7 6 5 8 8 6 7 8 7 7 8 8 8 8 8 8 9 9 10 10 11 12 12 12 12 12 12 12 11 11 11 11 11 11 11 10 10 10 10 10 10 10 10 10 10 10
7 7 7 7 6 4 9 8 7 7 7 6 7 7 8 8 8 8 8 8 9 9 10 11 11 12 12 12 12 12 12 12 11 11 11 11 11 11 11 10 10 10 10 10 10 10 10 10 10
7 7 6 6 4 4 8 8 7 6 6 7 7 7 7 8 8 8 9 9 9 9 9 10 10 11 11 12 12 12 12 12 11 11 11 11 11 11 11 10 10 10 10 10 10 10 10 10 10
7 6 6 6 4 6 8 7 6 6 5 6 7 6 7 7 8 8 9 8 9 9 9 8 9 10 10 11 11 11 11 11 11 11 11 11 11 11 11 11 10 10 10 10 10 10 10 10 10
6 6 6 6 7 6 8 7 6 6 4 5 6 6 7 7 7 8 8 9 9 8 9 9 9 9 10 11 10 11 11 11 11 11 11 11 11 11 11 11 11 10 10 10 10 10 10 10 10
6 6 6 6 5 6 6 7 7 6 4 5 6 6 6 6 7 7 7 8 8 9 8 8 9 9 9 10 10 10 10 10 11 10 10 11 11 11 10 11 11 11 10 10 10 10 10 10 10
6 6 6 6 6 3 3 4 5 6 5 5 6 6 6 6 6 7 7 7 7 7 8 9 9 9 9 10 10 10 10 10 10 10 10 11 11 11 11 11 10 10 10 10 10 10 10 10 10
5 5 5 5 5 6 6 3 3 4 5 5 5 5 5 6 6 6 6 6 6 6 6 7 8 8 8 9 8 9 10 10 10 10 10 10 10 10 10 11 11 10 10 10 10 10 10 10 10
Height
3164 3165 3166 3168 3171 3167 3166 3169 3167 3166 3167 3167 3165 3165 3166 3166 3167 3170 3166 3166 3167 3168 3168 3169 3169 3169 3170 3170 3170 3170 3170 3171 3171 3171 3172 3172 3172 3173 3172 3172 3172 3174 3174 3174 3174 3175 3175 3176 3176
3162 3162 3164 3165 3168 3166 3166 3167 3167 3167 3166 3166 3165 3164 3163 3165 3165 3166 3167 3168 3167 3168 3170 3171 3171 3171 3171 3171 3171 3171 3172 3173 3173 3173 3173 3174 3175 3175 3176 3177 3177 3177 3177 3177 3177 3178 3178 3178 3179
3160 3160 3163 3164 3165 3164 3167 3167 3167 3166 3166 3165 3164 3163 3163 3165 3164 3166 3167 3168 3168 3170 3171 3172 3173 3174 3174 3174 3174 3174 3175 3176 3176 3176 3177 3177 3177 3177 3178 3179 3179 3180 3180 3180 3181 3181 3181 3181 3182
3158 3160 3162 3162 3162 3163 3165 3166 3165 3166 3165 3164 3162 3163 3162 3164 3164 3165 3167 3169 3170 3171 3172 3173 3174 3175 3176 3176 3176 3176 3176 3177 3178 3178 3179 3179 3180 3181 3181 3181 3182 3182 3183 3182 3183 3183 3184 3184 3184
3156 3158 3159 3161 3161 3162 3166 3165 3164 3164 3165 3164 3162 3161 3161 3162 3163 3165 3167 3169 3171 3172 3173 3174 3175 3176 3177 3177 3177 3178 3178 3179 3180 3180 3181 3182 3182 3182 3182 3183 3183 3183 3183 3183 3184 3185 3185 3186 3186
3155 3158 3159 3159 3160 3161 3164 3163 3162 3162 3163 3164 3162 3161 3161 3162 3163 3165 3167 3169 3171 3172 3174 3174 3176 3177 3178 3178 3179 3179 3180 3180 3181 3182 3182 3183 3183 3183 3184 3184 3184 3184 3185 3185 3185 3186 3187 3188 3188
3155 3156 3157 3158 3158 3160 3159 3161 3161 3160 3163 3164 3162 3160 3161 3162 3163 3165 3166 3168 3170 3172 3173 3174 3175 3177 3178 3179 3180 3180 3181 3181 3182 3182 3183 3184 3184 3184 3185 3185 3186 3186 3186 3186 3188 3188 3188 3188 3188
3155 3156 3157 3158 3159 3161 3160 3160 3159 3159 3161 3163 3162 3162 3162 3162 3163 3163 3165 3167 3169 3171 3172 3173 3175 3176 3178 3179 3180 3180 3181 3182 3182 3183 3184 3184 3185 3185 3186 3186 3186 3187 3187 3188 3188 3188 3189 3189 3189
3154 3156 3156 3158 3158 3159 3160 3159 3158 3159 3161 3161 3161 3162 3162 3161 3162 3163 3164 3165 3168 3170 3172 3173 3174 3176 3177 3178 3180 3181 3181 3182 3183 3183 3184 3185 3185 3186 3186 3186 3187 3188 3188 3188 3188 3188 3189 3189 3189
3154 3154 3155 3157 3158 3157 3157 3157 3158 3159 3159 3159 3161 3161 3161 3160 3161 3161 3163 3164 3166 3168 3171 3172 3173 3175 3176 3178 3179 3180 3181 3182 3183 3183 3184 3185 3185 3185 3186 3187 3187 3187 3188 3187 3188 3188 3188 3189 3190
3153 3153 3153 3154 3154 3154 3155 3155 3156 3156 3157 3158 3159 3159 3159 3159 3159 3160 3161 3163 3165 3165 3168 3171 3172 3174 3176 3177 3178 3179 3180 3181 3182 3183 3183 3184 3184 3184 3186 3187 3186 3186 3187 3187 3187 3188 3188 3189 3190
3152 3152 3152 3151 3151 3150 3151 3152 3154 3154 3156 3157 3156 3157 3157 3158 3158 3159 3160 3161 3163 3165 3166 3168 3170 3173 3175 3176 3177 3178 3179 3180 3181 3182 3182 3183 3183 3185 3185 3185 3185 3185 3186 3186 3187 3188 3189 3190 3191
3149 3149 3148 3148 3148 3148 3149 3149 3150 3151 3152 3154 3153 3153 3155 3156 3157 3158 3158 3159 3161 3163 3164 3166 3168 3170 3172 3174 3175 3176 3177 3179 3180 3181 3181 3182 3183 3184 3184 3184 3184 3185 3186 3186 3187 3188 3189 3190 3191
3147 3146 3146 3145 3145 3145 3145 3146 3146 3147 3150 3152 3149 3149 3151 3153 3155 3155 3156 3157 3159 3161 3163 3164 3166 3167 3169 3171 3173 3175 3176 3177 3179 3180 3180 3181 3183 3183 3183 3184 3184 3184 3185 3186 3187 3188 3189 3190 3191
3145 3144 3144 3143 3143 3142 3144 3143 3143 3144 3145 3146 3146 3145 3147 3149 3150 3151 3153 3153 3155 3158 3160 3162 3164 3166 3168 3170 3171 3173 3174 3175 3176 3177 3179 3180 3181 3182 3182 3182 3183 3183 3184 3185 3186 3188 3189 3190 3191
3145 3144 3143 3142 3141 3140 3142 3140 3140 3141 3140 3141 3142 3142 3141 3143 3145 3147 3149 3150 3151 3153 3157 3159 3161 3163 3165 3167 3169 3170 3171 3173 3174 3176 3177 3178 3179 3180 3181 3181 3182 3182 3183 3184 3185 3186 3187 3189 3189
3143 3143 3143 3141 3141 3140 3141 3138 3139 3139 3137 3135 3137 3138 3139 3138 3139 3141 3144 3145 3147 3149 3153 3156 3159 3161 3163 3165 3167 3168 3169 3171 3172 3174 3175 3176 3177 3178 3179 3179 3179 3180 3181 3182 3183 3185 3186 3187 3188
3144 3142 3141 3140 3141 3138 3137 3134 3132 3131 3130 3130 3131 3132 3133 3135 3135 3138 3139 3141 3143 3145 3148 3152 3155 3158 3160 3162 3164 3166 3167 3169 3170 3171 3172 3174 3175 3176 3176 3177 3177 3178 3179 3180 3182 3183 3184 3186 3187
3143 3141 3139 3139 3139 3137 3135 3133 3130 3128 3126 3123 3123 3126 3129 3131 3133 3134 3136 3137 3138 3140 3143 3147 3151 3155 3157 3159 3161 3163 3165 3166 3167 3168 3169 3171 3172 3173 3174 3174 3175 3176 3177 3178 3179 3181 3183 3185 3186
3140 3139 3138 3137 3137 3136 3132 3131 3129 3127 3123 3119 3116 3121 3125 3129 3131 3131 3132 3134 3135 3137 3139 3142 3147 3150 3153 3156 3158 3160 3162 3163 3164 3164 3166 3168 3169 3170 3171 3172 3173 3174 3175 3176 3178 3180 3182 3183 3185
3137 3136 3136 3136 3133 3133 3132 3131 3130 3127 3124 3121 3118 3120 3121 3124 3124 3126 3128 3131 3132 3133 3135 3139 3142 3146 3149 3152 3153 3155 3157 3159 3161 3163 3164 3165 3167 3168 3169 3170 3171 3172 3173 3175 3176 3178 3180 3181 3183
3135 3135 3134 3134 3133 3132 3131 3135 3130 3127 3124 3121 3119 3119 3120 3121 3123 3123 3125 3126 3128 3131 3132 3134 3137 3141 3144 3146 3148 3151 3153 3155 3157 3159 3159 3161 3163 3165 3166 3167 3169 3170 3172 3173 3175 3176 3178 3179 3181
3134 3132 3132 3131 3131 3130 3127 3130 3130 3128 3125 3123 3121 3120 3120 3120 3121 3122 3121 3123 3124 3127 3128 3130 3132 3135 3138 3141 3143 3146 3148 3150 3152 3154 3155 3157 3159 3161 3163 3165 3166 3168 3169 3171 3173 3174 3176 3177 3179
3132 3130 3128 3128 3129 3129 3125 3127 3129 3127 3126 3124 3123 3122 3120 3120 3120 3120 3120 3119 3120 3123 3125 3127 3128 3130 3132 3135 3138 3140 3142 3145 3146 3149 3151 3152 3154 3156 3158 3161 3162 3164 3166 3168 3169 3171 3172 3174 3175
3130 3128 3127 3130 3130 3127 3125 3126 3125 3127 3126 3125 3124 3124 3122 3120 3120 3120 3119 3117 3116 3117 3121 3122 3124 3126 3127 3129 3131 3134 3137 3139 3140 3142 3144 3146 3149 3151 3154 3156 3158 3160 3161 3163 3164 3166 3168 3169 3171
3129 3129 3128 3129 3131 3126 3125 3124 3125 3127 3125 3124 3125 3125 3124 3122 3120 3119 3119 3117 3116 3114 3115 3117 3118 3120 3121 3123 3125 3127 3130 3132 3134 3136 3137 3139 3142 3145 3147 3149 3152 3154 3155 3157 3158 3160 3162 3164 3165
3129 3129 3129 3127 3125 3125 3123 3123 3127 3128 3123 3124 3124 3124 3123 3122 3120 3119 3118 3117 3116 3114 3113 3112 3112 3112 3113 3115 3117 3119 3122 3124 3126 3128 3129 3131 3134 3137 3139 3141 3144 3148 3149 3151 3152 3154 3156 3157 3159
3127 3128 3128 3127 3126 3125 3120 3122 3124 3125 3121 3123 3122 3123 3122 3121 3120 3118 3117 3116 3114 3113 3112 3110 3109 3107 3106 3106 3108 3112 3114 3116 3118 3119 3121 3122 3125 3128 3131 3133 3136 3138 3141 3144 3145 3147 3149 3150 3152
3126 3125 3126 3126 3125 3124 3125 3125 3120 3121 3121 3122 3121 3121 3119 3118 3117 3116 3115 3114 3112 3110 3109 3108 3106 3105 3104 3102 3101 3102 3106 3109 3110 3111 3113 3115 3115 3118 3120 3123 3125 3128 3131 3134 3136 3139 3141 3142 3144
3124 3124 3124 3124 3124 3122 3121 3129 3126 3124 3120 3118 3117 3116 3115 3115 3114 3112 3111 3110 3109 3108 3106 3104 3102 3100 3099 3098 3097 3098 3098 3099 3101 3103 3105 3106 3107 3107 3109 3112 3114 3117 3120 3124 3126 3130 3133 3135 3137
Wind_Speed
5 9 9 8 3 3 6 2 3 5 8 10 10 6 9 7 7 3 2 5 6 8 9 10 10 10 9 10 11 12 12 11 12 13 14 15 16 17 17 18 19 19 20 21 22 22 22 22 21
5 6 8 8 3 5 7 8 4 3 9 11 8 7 9 9 12 9 5 7 6 7 8 10 11 10 11 12 13 13 14 14 15 15 16 17 17 19 20 20 20 20 19 20 20 20 20 20 20
4 6 8 7 6 10 3 4 11 7 8 9 7 8 9 3 9 8 10 9 7 7 7 9 10 11 12 13 14 16 15 16 17 17 17 18 18 18 18 19 19 19 20 19 18 19 19 18 18
5 6 7 9 10 6 16 7 6 8 7 8 8 5 9 5 4 11 10 9 8 7 7 8 8 9 11 12 13 13 14 14 15 15 15 16 16 16 15 16 16 16 16 17 17 16 15 15 16
5 6 6 6 12 8 4 7 7 13 7 7 8 6 7 3 11 10 9 9 9 8 7 7 8 8 8 10 10 11 11 11 12 12 13 13 14 14 13 13 13 13 14 14 14 14 13 13 13
5 5 5 7 7 5 11 10 12 12 9 7 9 6 3 5 7 8 8 8 8 9 8 7 7 7 7 8 8 8 9 9 9 10 10 11 11 12 12 12 11 12 12 12 12 12 11 11 12
6 7 7 8 11 11 9 11 13 12 8 6 7 7 3 4 7 8 8 8 7 7 7 7 6 6 7 7 7 7 7 8 8 8 8 9 9 9 10 11 10 11 11 11 11 11 11 11 11
4 6 7 9 5 10 9 9 8 10 9 7 7 6 5 6 8 10 10 9 8 8 7 7 6 6 6 6 6 6 6 6 6 6 6 7 7 7 8 9 10 10 10 10 10 11 11 12 11
1 5 4 2 10 7 6 8 7 8 10 10 10 9 7 8 9 11 11 10 9 8 8 7 7 6 6 5 6 6 6 6 6 6 5 5 6 6 6 7 7 9 9 10 10 11 11 12 11
2 4 5 6 8 3 2 2 3 6 11 14 11 10 9 7 9 11 11 11 10 9 9 9 8 6 6 6 6 6 6 6 6 5 5 5 5 5 4 6 6 8 9 10 10 10 11 11 11
3 7 8 7 9 14 9 8 9 8 12 13 10 9 10 8 7 10 12 12 12 12 11 10 10 8 7 7 6 6 6 6 6 6 5 5 4 3 4 6 7 8 9 9 9 9 10 10 10
11 12 10 8 15 20 21 16 19 14 15 9 12 10 13 7 8 9 12 13 13 13 13 11 11 10 8 8 7 7 6 6 6 6 6 6 5 7 7 7 7 8 8 8 9 9 10 9 9
11 11 11 12 16 18 15 22 23 25 18 18 17 17 17 15 13 12 13 15 15 14 15 13 11 10 9 8 8 7 7 6 7 7 7 6 7 8 8 7 8 9 9 9 9 9 9 9 10
6 12 13 14 20 15 13 13 16 17 16 18 22 22 24 22 18 18 16 15 15 15 15 15 13 12 10 8 8 8 7 9 9 8 7 7 8 9 9 9 9 10 9 9 10 10 9 9 9
8 7 4 1 4 3 8 15 14 3 10 17 24 26 25 23 23 21 18 17 17 16 17 16 15 14 11 10 9 9 9 9 7 7 7 9 10 10 10 9 10 10 10 10 10 10 9 8 8
7 7 11 4 8 6 9 15 4 8 10 11 11 20 26 23 20 20 21 19 18 18 16 17 17 15 13 11 10 10 8 8 8 8 9 10 11 11 10 9 10 11 11 10 10 10 9 8 9
5 9 13 9 6 9 12 21 8 10 14 11 14 16 17 21 22 21 20 20 19 18 17 17 18 16 15 13 12 11 10 9 10 10 10 11 12 11 10 10 11 10 10 10 10 10 9 9 9
11 16 14 9 13 14 17 26 22 11 15 23 22 22 22 24 24 25 25 21 21 19 19 18 19 18 17 16 14 11 10 9 10 9 10 11 12 11 11 10 10 10 10 11 10 10 10 10 11
17 17 14 3 10 15 22 16 9 4 7 14 24 23 19 22 19 16 18 21 21 21 21 19 19 18 18 17 14 11 9 10 10 10 11 12 12 12 12 11 11 11 11 10 11 11 12 12 12
18 12 8 8 10 18 12 9 4 4 9 13 10 17 17 16 19 20 19 20 19 21 21 21 19 18 18 18 16 13 13 12 12 13 13 13 13 13 13 12 12 11 11 12 12 13 14 13 12
10 9 12 16 18 4 8 12 3 6 8 6 3 11 17 15 16 23 19 21 20 20 20 20 18 18 19 18 18 16 15 14 12 11 12 13 13 14 15 14 13 14 14 14 15 15 14 13 11
10 9 12 13 14 5 2 5 8 8 7 7 3 12 17 16 18 21 21 25 23 15 17 20 20 19 19 20 20 19 17 15 14 14 14 15 15 16 17 18 16 16 16 16 16 15 13 12 11
12 15 15 13 10 11 4 5 6 4 8 15 13 10 3 17 22 23 23 26 23 20 18 19 21 21 21 21 21 21 20 18 17 16 16 17 17 18 19 20 19 19 18 18 16 15 14 13 11
11 12 10 9 7 3 7 6 12 1 7 12 16 16 15 10 3 20 29 27 27 23 20 18 20 22 23 23 24 24 22 21 21 18 18 18 19 19 20 21 22 22 21 20 18 18 16 15 14
2 6 3 2 0 4 8 4 6 11 6 7 12 15 18 17 12 7 1 11 24 27 23 23 22 21 23 25 25 25 25 24 23 21 20 21 20 21 21 23 24 24 24 24 23 21 20 19 17
4 5 0 2 2 3 6 7 14 13 9 3 2 6 12 18 18 15 11 7 5 9 13 18 21 22 24 25 26 27 26 25 25 25 24 24 22 22 24 25 27 28 28 29 28 26 24 23 21
3 4 2 5 6 2 5 6 20 15 10 5 6 5 5 11 17 21 19 13 9 8 9 10 14 19 23 26 27 27 26 27 27 27 27 27 26 25 27 27 28 30 32 32 32 30 28 28 26
9 4 3 4 1 3 2 10 6 22 12 8 10 11 10 12 14 16 20 20 15 11 9 10 12 14 19 24 27 27 28 28 29 30 29 29 28 28 30 30 31 33 34 35 36 34 32 32 30
4 5 5 5 5 3 1 6 5 29 14 6 7 9 14 17 18 18 22 23 19 16 14 13 13 13 15 20 25 28 27 26 28 30 29 29 30 30 32 33 34 35 36 38 39 38 36 36 35
6 4 4 5 3 0 0 6 7 8 4 8 14 17 18 22 23 24 27 28 23 16 14 15 16 16 17 16 17 22 26 26 29 29 30 31 33 33 33 35 36 36 37 39 41 41 40 40 38
Wind_Direction
266 242 240 253 287 280 294 22 197 276 325 343 326 252 203 206 189 248 192 153 130 115 106 103 103 103 108 113 113 114 114 115 112 107 104 100 99 100 97 95 92 92 93 95 95 95 95 97 97
273 234 220 217 228 256 328 168 247 292 327 339 320 215 237 223 220 240 176 155 138 121 115 112 108 108 111 109 106 105 107 106 105 103 101 99 100 100 100 101 101 99 97 94 94 96 97 97 97
266 221 202 184 230 242 129 193 283 294 305 331 316 228 253 272 225 230 173 158 148 134 129 120 120 122 118 114 112 113 111 111 110 109 108 106 102 99 99 100 100 101 100 101 100 98 98 98 98
219 203 182 201 198 206 295 212 264 286 306 335 315 241 260 240 205 172 174 162 158 153 141 134 130 124 122 120 118 115 113 112 112 111 110 108 109 109 108 106 105 106 107 105 103 103 103 103 99
195 163 172 212 222 211 228 240 277 286 305 339 317 294 280 228 171 178 181 174 159 172 160 152 144 135 131 123 121 119 117 117 115 115 115 115 115 113 111 110 110 107 105 105 106 104 104 103 105
162 155 212 224 224 257 262 247 272 288 300 322 320 304 278 176 188 189 192 190 169 182 174 169 160 149 142 135 131 125 122 120 118 118 118 117 116 117 117 115 113 113 113 108 106 110 114 116 115
153 193 208 249 256 289 241 223 257 275 277 308 325 296 258 193 212 210 208 207 193 193 188 182 176 169 160 154 150 140 138 135 133 128 128 126 121 119 120 120 122 121 116 118 124 125 124 123 120
166 213 225 234 274 326 171 210 256 265 254 280 296 316 289 240 221 223 221 220 209 204 211 202 195 192 177 175 165 159 154 147 146 141 141 134 132 126 125 122 122 123 128 133 130 128 126 121 119
248 211 187 39 322 302 250 247 220 248 253 255 277 308 312 259 231 229 232 232 225 212 216 220 215 203 198 195 189 181 171 168 164 159 155 153 145 139 135 128 133 138 141 137 136 133 127 122 121
36 201 200 6 290 285 133 120 218 236 246 254 270 287 297 271 237 233 237 239 240 232 214 212 224 214 213 212 209 200 193 189 185 178 173 170 160 143 149 154 158 154 152 144 142 137 130 127 124
329 278 261 285 295 258 249 232 224 252 239 254 279 293 289 293 256 242 241 240 240 239 229 210 210 221 218 228 221 217 211 207 203 198 191 185 172 148 195 189 175 163 158 148 140 137 129 133 129
283 281 253 276 267 257 251 243 241 230 238 235 276 264 264 275 296 260 249 243 243 244 244 230 219 218 218 225 230 228 224 218 217 216 204 194 187 200 201 197 179 168 161 151 143 142 139 136 136
250 264 231 254 268 272 252 244 252 246 242 203 240 254 258 263 274 284 263 247 242 241 241 239 240 236 233 225 229 224 228 226 226 223 216 208 211 213 205 195 182 173 165 157 149 147 146 154 149
234 260 285 265 259 265 264 262 254 248 248 230 237 246 252 258 263 263 274 264 249 242 241 242 241 247 249 243 241 234 226 226 221 221 220 222 223 219 210 197 188 182 171 164 159 157 159 162 155
326 332 300 192 45 309 310 283 283 243 230 241 232 249 256 258 256 258 266 271 256 245 237 238 239 245 246 244 245 238 231 229 224 231 232 233 230 222 213 199 191 187 179 173 166 167 166 167 160
332 343 323 329 349 329 288 321 279 213 236 249 247 244 256 259 262 256 255 261 262 247 239 237 239 242 246 247 247 249 240 237 235 235 238 237 234 227 216 204 197 193 187 180 178 175 174 173 161
31 310 339 355 302 300 300 310 324 246 247 228 244 241 240 259 257 263 260 259 263 255 241 235 238 242 244 245 246 248 246 240 239 237 238 239 236 231 222 210 202 197 192 190 187 182 178 176 163
312 313 302 315 336 307 307 313 321 313 252 240 226 230 241 246 249 259 264 259 259 257 243 235 233 235 240 244 244 246 257 256 251 245 244 243 239 236 227 217 207 201 198 195 190 182 177 172 160
292 296 300 335 302 286 299 323 358 341 304 275 242 229 231 244 241 254 262 268 263 254 242 237 235 235 239 245 248 252 262 260 258 251 245 244 242 239 232 220 210 203 199 193 184 176 171 165 156
293 289 310 305 289 302 330 16 60 8 339 334 251 226 236 244 237 241 254 271 272 259 245 239 238 237 240 246 251 253 256 257 254 255 252 247 244 241 235 224 212 203 195 187 179 173 169 163 160
291 283 295 296 305 307 30 86 7 348 278 316 234 201 222 221 233 229 243 266 277 260 250 247 246 242 241 243 247 251 253 258 267 269 261 255 247 243 237 226 214 206 197 190 183 177 174 169 168
301 284 286 293 311 310 204 119 66 9 8 37 70 208 214 222 231 230 233 246 255 252 250 247 248 247 243 243 245 250 255 256 258 257 250 244 243 241 238 229 218 211 204 198 194 188 185 183 185
281 289 285 288 307 316 166 173 138 330 42 60 57 62 124 220 221 229 242 250 260 245 238 245 248 248 245 245 246 247 248 254 254 253 252 248 244 241 239 234 223 216 210 207 203 201 201 202 201
292 301 287 261 259 287 193 192 180 228 88 87 74 71 68 75 129 227 236 250 263 264 264 259 251 250 250 248 246 247 249 250 253 253 252 248 243 242 242 238 229 223 218 216 214 215 216 215 216
345 353 17 53 77 226 170 219 174 173 129 89 80 69 68 71 76 78 182 245 249 263 269 269 267 260 256 253 250 251 251 252 254 254 253 252 245 243 241 241 236 229 225 223 221 223 224 226 226
327 318 325 226 192 268 217 175 170 163 141 133 73 50 57 52 47 49 51 30 341 269 263 267 270 266 259 256 254 252 252 253 253 253 252 252 248 242 240 241 239 233 229 228 227 228 228 231 232
250 247 241 286 273 255 154 131 158 146 181 193 262 287 342 14 22 26 22 21 14 349 329 286 269 268 262 254 250 251 251 250 251 251 251 249 248 243 239 239 240 240 236 233 233 231 232 235 234
250 251 247 234 277 281 200 174 171 159 192 204 252 280 313 334 330 350 4 4 353 344 328 315 309 283 266 260 254 249 248 249 249 247 246 247 245 243 240 237 237 238 239 239 238 237 235 238 239
279 240 251 267 262 176 310 31 322 191 201 230 283 313 314 320 322 321 341 349 343 330 318 308 298 293 294 282 262 253 249 248 250 251 250 249 247 243 239 238 238 239 240 240 242 241 241 241 242
235 248 253 241 305 169 244 98 116 159 206 318 323 318 315 314 316 315 324 334 333 316 301 295 291 287 280 275 272 271 263 257 254 254 255 253 249 245 242 239 237 237 239 244 245 246 246 247 247